NOAA 16 DEB, 41399

Orbit data source: Space-Track

NOAA 16 DEB, 41399 is space debris in SSO originally from a launch on Thu, 21 Sep 2000 UTC launched from the Air Force Western Test Range (AFWTR). Debris objects in space refer to the collection of defunct objects orbiting the Earth. Examples of debris include non-operational satellites, rocket bodies, and fragments generated from explosions, collisions, or faulty payload assembly.

Loading next visibility...
Identifier
41399, 2000-055KC
Orbit
SSO
Country
Flag of USUS
Related business
Manufacturer
Unknown
Mission
Spacecraft
Bus & Motor
Unknown
Mass
Unknown
Launch date (UTC)
2000-09-21 (25 years ago)
Launch vehicle
Unknown
Launch site
Air Force Western Test Range (AFWTR)
Object type
Payload
Rocket body
Debris
Shape & HBR
Unknown shape, 0.1 m
Radar Cross Section
Small (<0.1 m²)

Expand to show TLE details & history
Last TLE update: 7 hours ago

TLE from 7 hours ago
0 NOAA 16 DEB
1 41399U 00055KC  25293.54703209  .00005320  00000-0  26708-2 0  9992
2 41399  98.7541 330.2746 0042000 181.4626 178.6432 14.16477915499964
Epoch: 2025-10-20T13:07Z
TLE epoch observation values (Epoch: 2025-10-20T13:07:43.572Z)
Latitude
-0.00004°
Longitude
104.09528°
Altitude
870.5 km
Speed
7.402 km/s
True Right ascension
22h 01m 05s
True Declination
0° 00' 00"
Sunlit
Object was in full shadow at epoch
Visualization orbit readout
Latitude
Unknown
Longitude
Unknown
Altitude
Unknown
Speed
Unknown
Apparent Right ascension
Unknown
Apparent Declination
Unknown
Sunlit
N/A
Visualization observer readout
Local Sidereal Time
15:16:12
Azimuth
Unknown
Elevation
Unknown
Doppler factor
Unknown
Orbital elements
Apogee altitude
864.747 km
Perigee altitude
804.161 km
Semi-major axis
7,212.591 km
Eccentricity
0.0042
Inclination
98.7541°
RAAN
330.2746°
Arg. of periapsis
181.4626°
True anomaly
178.65454°
Mean anomaly
178.6432°
Eccentric anomaly
178.64887°
Mean motion
3.54329 °/min
Orbital period
101.6 mins
BSTAR
0.0026708
Loading maneuver chart data...
Computing Atmospheric mass density...
Loading historical data...
Loading historical data...
Loading historical data...
Loading historical data...
Loading historical data...
Loading historical data...
Loading historical data...

Documentation

Showing up to 5 results
|